User: anonymous   Login
Location: Mentone
(34.5413°N, 85.5351°W)
Time: 10:39:17
(UTC-06:00)
Language:

Uosat F - Orbit

View from above orbital plane
View from above orbital plane
View from above satellite
View from above satellite

Ground track
Ground track

The orbit data is extracted from the following two-line orbital elements,

1 21575U 91050B   15059.92599199  .00000276  00000-0  10120-3 0  9990
2 21575 098.7305 045.7919 0006213 280.1704 109.7510 14.40569339240444
Epoch (UTC): 28 February 2015 22:13:25
Eccentricity: 0.0006213
inclination: 98.7305°
perigee height: 752 km
apogee height: 761 km
right ascension of ascending node: 45.7919°
argument of perigee: 280.1704°
revolutions per day: 14.40569339
mean anomaly at epoch: 109.7510°
orbit number at epoch: 24044

The dashed part of the orbit path shows where the satellite is in the earth's shadow,  

DLR